AirNav   Everest Fuels
 
 698 users online  

KHEY Hanchey Army Heliport (Fort Rucker)
Fort Rucker/Ozark, Alabama, USA

GOING TO FORT RUCKER/OZARK?


FAA INFORMATION EFFECTIVE 10 SEPTEMBER 2020

Location

FAA Identifier: HEY
Lat/Long: 31-21-20.6430N 085-39-06.7070W
31-21.344050N 085-39.111783W
31.3557342,-85.6518631
(estimated)
Elevation: 317.9 ft. / 96.9 m (surveyed)
Variation: 03W (2010)
From city: 4 miles SE of FORT RUCKER OZARK, AL
Time zone: UTC -5 (UTC -6 during Standard Time)
Zip code: 36362

Heliport Operations

Heliport use: Private use. Permission required prior to landing
Control tower: yes
ARTCC: JACKSONVILLE CENTER
FSS: ANNISTON FLIGHT SERVICE STATION
NOTAMs facility: OZR (NOTAM-D service available)
Attendance: MON-FRI 0600-0030, EXCP HOL
Pattern altitude: 900.9 ft. MSL
TFC PAT ALT 900' MSL.
Segmented circle: no
Lights: SS-SR
Beacon: white (unlighted land airport)
Operates sunset to sunrise.

Heliport Communications

ATIS: 141.375
HANCHEY GROUND: 142.55 225.575 [OPR 1145-0645Z++ OR TIL MISSION CMPLT, MON-FRI EXC HOL, OT CTC CAIRNS TWR.]
HANCHEY TOWER: 140.5 387.85 [OPR 1145-0645Z++ OR TIL MISSION CMPLT, MON-FRI EXC HOL, OT CTC CAIRNS TWR.]
CAIRNS APPROACH: 121.1
CAIRNS DEPARTURE: 121.1
CLEARANCE DELIVERY: 118.075
EMERG: 121.5 243.0
RADAR: 134.1 135.4 229.6 242.6
WX ASOS at DHN (11 nm E): PHONE 334-983-5999
WX AWOS-3PT at EDN (13 nm W): 118.9 (334-347-3524)
  • APCH/DEP SVC PRVDD BY JACKSONVILLE ARTCC ON FREQS 134.3/353.5 (DOTHAN RCAG) WHEN CAIRNS APCH/DEP CLSD.

Nearby radio navigation aids

VOR radial/distance  VOR name  Freq  Var
HEYr181/(1.1)HANCHEY VOR110.6003W
OZRr039/6.5CAIRNS VOR/DME111.2003W
RRSr289/12.1WIREGRASS VORTAC111.6002E
EDNr078/(13.3)ENTERPRISE VOR116.6003W

 
NDB name  Hdg/Dist  Freq  Var  ID
HANCHEY178/1.222103WHYE .... -.-- .
LOWE097/4.726903WLOR .-.. --- .-.
RUCKR050/11.521203WOZ --- --..
BOLL WEEVIL090/16.935203WBVG -... ...- --.
SOYYA325/36.432902WSMY ... -- -.--
BLOOD145/36.836504WTOI - --- ..
JUDD087/38.026402WJUY .--- ..- -.--

Heliport Services

Runway Information

Runway 17/35

Dimensions: 476 x 50 ft. / 145 x 15 m
Surface: asphalt, in fair condition
Runway edge lights: medium intensity
RUNWAY 17  RUNWAY 35
Latitude: 31-21.383267N31-21.304817N
Longitude: 085-39.114167W085-39.109383W
Elevation: 317.9 ft.317.9 ft.
Traffic pattern: leftleft
Runway heading: 180 magnetic, 177 true000 magnetic, 357 true
Markings: precision, in fair conditionprecision, in fair condition
Touchdown point: yes, no lightsyes, no lights

Heliport Ownership and Management from official FAA records

Ownership: U.S. Army
Owner: US ARMY HANCHEY ARMY HELIPAD
9325 GUNSTON ROAD
FT BELVOIR, VA 22060
Manager: PAUL MEISSNER
Phone 334-255-2680

Additional Remarks

FUEL: 100, J8
LGT: HI INTS ROT BCN, 60/80 WHITE FLASHES PER MIN.
OPR 1145-0645Z++OR UNTIL MISSION COMPLETE, MON-FRI EXC HOL, OT CTC CAIRNS TWR. SEE FLIP AP/1, FLT HAZ, FORT RUCKER.
RSTD: NO TRAN ACFT.
CAUTION: INTS STU TRNG.
(RWY LENGTH SOURCE DATE, RWY 17/35) HELICOPTER RWY

Instrument Procedures

NOTE: All procedures below are presented as PDF files. If you need a reader for these files, you should download the free Adobe Reader.

NOT FOR NAVIGATION. Please procure official charts for flight.
FAA instrument procedures published for use from 10 September 2020 at 0901Z to 08 October 2020 at 0900z.

 
IAPs - Instrument Approach Procedures
COPTER RNAV (GPS) RWY 17   download (114KB)
COPTER VOR RWY 17   download (113KB)
COPTER NDB RWY 17   download (111KB)
NOTE: Special Take-Off Minimums/Departure Procedures apply   download (189KB)

Other nearby airports with instrument procedures:

71J - Ozark-Blackwell Field Airport (5 nm N)
KLOR - Lowe Army Heliport (Fort Rucker) (5 nm W)
KOZR - Cairns Army Airfield (Fort Rucker) (6 nm SW)
KDHN - Dothan Regional Airport (11 nm E)
KEDN - Enterprise Municipal Airport (13 nm W)
0J6 - Headland Municipal Airport (17 nm E)
 
Loc | Ops | Rwys | IFR | FBO | Links
Com | Nav | Svcs | Stats | Notes

Continental Services
AirBoss

 
Area around KHEY (Hanchey Army Heliport (Fort Rucker))
 
Road maps at: MapQuest Bing Google
 
Aerial photo
WARNING: Photo may not be current or correct
Aerial photo of KHEY (Hanchey Army Heliport (Fort Rucker))
Do you have a better or more recent aerial photo of Hanchey Army Heliport (Fort Rucker) that you would like to share? If so, please send us your photo.

 
Sectional chart

 
Airport distance calculator
Flying to Hanchey Army Heliport (Fort Rucker)? Find the distance to fly.

From to KHEY

Sunrise and sunset
Times for 19-Sep-2020
 Local
(UTC-5)
 Zulu
(UTC)
Morning civil twilight06:0611:06
Sunrise06:3111:31
Sunset18:4123:41
Evening civil twilight19:0600:06

Current date and time
Zulu (UTC)  19-Sep-2020 11:52:32
Local (UTC-5)  19-Sep-2020 06:52:32
 
METAR
KHEY 191129Z AUTO 02005KT 10SM FEW140 22/20 A3002 RMK AO2 RAE18RAB19E29 SLP165
KLOR 
5nm W 
191114Z AUTO 01003KT 9SM CLR 21/20 A3003 RMK AO2 RAE14 SLP150
KOZR 
5nm SW 
191108Z AUTO 01004KT 10SM M 22/20 A3002 RMK AO2 DZE08 SLP165 $
KSXS 
10nm W 
191058Z AUTO 04005KT 9SM CLR 22/20 A3002 RMK AO2 RAB21E37RAB44E54 SLP164 P0000 T02150203
KDHN 
11nm E 
191053Z AUTO 03005KT 10SM CLR 22/20 A3005 RMK AO2 SLP170 T02170200
KEDN 
13nm W 
191135Z AUTO 00000KT 10SM CLR 21/21 A3003 RMK AO2 T02110210
TAF
KOZR 
5nm SW 
190000Z 1900/2006 VRB06KT 9999 SCT020 SCT120 BKN220 QNH2990INS BECMG 1916/1917 34005KT 9999 SCT020 SCT220 QNH2999INS TX26/1921Z TN22/1909Z LAST NO AMDS AFT 1907 NEXT 2111
KDHN 
11nm E 
190527Z 1906/2006 06005KT P6SM SCT025 BKN250 FM191500 06009KT P6SM OVC040
NOTAMs
Click for the latest NOTAMs
NOTAMs are issued by the DoD/FAA and will open in a separate window not controlled by AirNav.

 

 
 

Would you like to see your business listed on this page?

 If your business provides an interesting product or service to pilots, flight crews, aircraft, or users of the Hanchey Army Heliport (Fort Rucker), you should consider listing it here.  To start the listing process, click on the button below
 
Add a business
 

Other Pages about Hanchey Army Heliport (Fort Rucker)

Update a link
 
Copyright © AirNav, LLC. All rights reserved. Privacy Policy  Contact